Year,Month,Day,Hour,Minute,Value (Times are PST for temperature in C)
2015,05,15,00,00,11.40
2015,05,15,00,01,11.40
2015,05,15,00,02,11.40
2015,05,15,00,03,11.30
2015,05,15,00,04,11.30
2015,05,15,00,05,11.30
2015,05,15,00,06,11.30
2015,05,15,00,07,11.30
2015,05,15,00,08,11.30
2015,05,15,00,09,11.30
2015,05,15,00,10,11.30
2015,05,15,00,11,11.30
2015,05,15,00,12,11.30
2015,05,15,00,13,11.20
2015,05,15,00,14,11.20
2015,05,15,00,15,11.20
2015,05,15,00,16,11.20
2015,05,15,00,17,11.20
2015,05,15,00,18,11.20
2015,05,15,00,19,11.20
2015,05,15,00,20,11.20
2015,05,15,00,21,11.20
2015,05,15,00,22,11.20
2015,05,15,00,23,11.20
2015,05,15,00,24,11.20
2015,05,15,00,25,11.20
2015,05,15,00,26,11.20
2015,05,15,00,27,11.20
2015,05,15,00,28,11.20
2015,05,15,00,29,11.20
2015,05,15,00,30,11.20
2015,05,15,00,31,11.20
2015,05,15,00,32,11.20
2015,05,15,00,33,11.20
2015,05,15,00,34,11.20
2015,05,15,00,35,11.20
2015,05,15,00,36,11.20
2015,05,15,00,37,11.30
2015,05,15,00,38,11.30
2015,05,15,00,39,11.30
2015,05,15,00,40,11.30
2015,05,15,00,41,11.30
2015,05,15,00,42,11.30
2015,05,15,00,43,11.30
2015,05,15,00,44,11.30
2015,05,15,00,45,11.40
2015,05,15,00,46,11.40
2015,05,15,00,47,11.40
2015,05,15,00,48,11.40
2015,05,15,00,49,11.40
2015,05,15,00,50,11.40
2015,05,15,00,51,11.40
2015,05,15,00,52,11.50
2015,05,15,00,53,11.50
2015,05,15,00,54,11.60
2015,05,15,00,55,11.60
2015,05,15,00,56,11.60
2015,05,15,00,57,11.60
2015,05,15,00,58,11.60
2015,05,15,00,59,11.70
2015,05,15,01,00,11.70
2015,05,15,01,01,11.70
2015,05,15,01,02,11.70
2015,05,15,01,03,11.70
2015,05,15,01,04,11.70
2015,05,15,01,05,11.70
2015,05,15,01,06,11.70
2015,05,15,01,07,11.70
2015,05,15,01,08,11.70
2015,05,15,01,09,11.70
2015,05,15,01,10,11.70
2015,05,15,01,11,11.70
2015,05,15,01,12,11.70
2015,05,15,01,13,11.70
2015,05,15,01,14,11.70
2015,05,15,01,15,11.70
2015,05,15,01,16,11.70
2015,05,15,01,17,11.70
2015,05,15,01,18,11.70
2015,05,15,01,19,11.60
2015,05,15,01,20,11.60
2015,05,15,01,21,11.60
2015,05,15,01,22,11.60
2015,05,15,01,23,11.60
2015,05,15,01,24,11.60
2015,05,15,01,25,11.60
2015,05,15,01,26,11.60
2015,05,15,01,27,11.60
2015,05,15,01,28,11.60
2015,05,15,01,29,11.60
2015,05,15,01,30,11.50
2015,05,15,01,31,11.50
2015,05,15,01,32,11.50
2015,05,15,01,33,11.40
2015,05,15,01,34,11.40
2015,05,15,01,35,11.40
2015,05,15,01,36,11.30
2015,05,15,01,37,11.30
2015,05,15,01,38,11.30
2015,05,15,01,39,11.30
2015,05,15,01,40,11.30
2015,05,15,01,41,11.30
2015,05,15,01,42,11.20
2015,05,15,01,43,11.20
2015,05,15,01,44,11.20
2015,05,15,01,45,11.10
2015,05,15,01,46,11.10
2015,05,15,01,47,11.10
2015,05,15,01,48,11.10
2015,05,15,01,49,11.10
2015,05,15,01,50,11.00
2015,05,15,01,51,11.00
2015,05,15,01,52,11.00
2015,05,15,01,53,11.00
2015,05,15,01,54,10.90
2015,05,15,01,55,10.90
2015,05,15,01,56,10.90
2015,05,15,01,57,10.90
2015,05,15,01,58,10.90
2015,05,15,01,59,10.90
2015,05,15,02,00,10.90
2015,05,15,02,01,10.90
2015,05,15,02,02,10.90
2015,05,15,02,03,10.80
2015,05,15,02,04,10.80
2015,05,15,02,05,10.80
2015,05,15,02,06,10.80
2015,05,15,02,07,10.70
2015,05,15,02,08,10.70
2015,05,15,02,09,10.70
2015,05,15,02,10,10.70
2015,05,15,02,11,10.70
2015,05,15,02,12,10.70
2015,05,15,02,13,10.70
2015,05,15,02,14,10.60
2015,05,15,02,15,10.60
2015,05,15,02,16,10.60
2015,05,15,02,17,10.60
2015,05,15,02,18,10.60
2015,05,15,02,19,10.60
2015,05,15,02,20,10.60
2015,05,15,02,21,10.50
2015,05,15,02,22,10.50
2015,05,15,02,23,10.40
2015,05,15,02,24,10.40
2015,05,15,02,25,10.40
2015,05,15,02,26,10.40
2015,05,15,02,27,10.40
2015,05,15,02,28,10.30
2015,05,15,02,29,10.30
2015,05,15,02,30,10.30
2015,05,15,02,31,10.30
2015,05,15,02,32,10.30
2015,05,15,02,33,10.30
2015,05,15,02,34,10.20
2015,05,15,02,35,10.20
2015,05,15,02,36,10.20
2015,05,15,02,37,10.20
2015,05,15,02,38,10.20
2015,05,15,02,39,10.20
2015,05,15,02,40,10.20
2015,05,15,02,41,10.20
2015,05,15,02,42,10.20
2015,05,15,02,43,10.10
2015,05,15,02,44,10.10
2015,05,15,02,45,10.10
2015,05,15,02,46,10.00
2015,05,15,02,47,10.00
2015,05,15,02,48,10.00
2015,05,15,02,49,9.90
2015,05,15,02,50,9.90
2015,05,15,02,51,9.90
2015,05,15,02,52,9.90
2015,05,15,02,53,9.90
2015,05,15,02,54,9.90
2015,05,15,02,55,9.90
2015,05,15,02,56,9.80
2015,05,15,02,57,9.80
2015,05,15,02,58,9.80
2015,05,15,02,59,9.80
2015,05,15,03,00,9.80
2015,05,15,03,01,9.80
2015,05,15,03,02,9.80
2015,05,15,03,03,9.80
2015,05,15,03,04,9.80
2015,05,15,03,05,9.80
2015,05,15,03,06,9.80
2015,05,15,03,07,9.80
2015,05,15,03,08,9.80
2015,05,15,03,09,9.80
2015,05,15,03,10,9.80
2015,05,15,03,11,9.80
2015,05,15,03,12,9.80
2015,05,15,03,13,9.80
2015,05,15,03,14,9.80
2015,05,15,03,15,9.80
2015,05,15,03,16,9.80
2015,05,15,03,17,9.80
2015,05,15,03,18,9.80
2015,05,15,03,19,9.90
2015,05,15,03,20,9.90
2015,05,15,03,21,9.90
2015,05,15,03,22,9.90
2015,05,15,03,23,10.00
2015,05,15,03,24,10.00
2015,05,15,03,25,10.00
2015,05,15,03,26,10.00
2015,05,15,03,27,9.90
2015,05,15,03,28,9.90
2015,05,15,03,29,9.90
2015,05,15,03,30,9.90
2015,05,15,03,31,9.90
2015,05,15,03,32,9.90
2015,05,15,03,33,9.90
2015,05,15,03,34,9.90
2015,05,15,03,35,9.90
2015,05,15,03,36,9.90
2015,05,15,03,37,9.90
2015,05,15,03,38,9.90
2015,05,15,03,39,9.90
2015,05,15,03,40,9.90
2015,05,15,03,41,9.90
2015,05,15,03,42,9.90
2015,05,15,03,43,9.90
2015,05,15,03,44,9.90
2015,05,15,03,45,9.90
2015,05,15,03,46,9.90
2015,05,15,03,47,9.90
2015,05,15,03,48,9.90
2015,05,15,03,49,10.00
2015,05,15,03,50,10.00
2015,05,15,03,51,10.00
2015,05,15,03,52,10.00
2015,05,15,03,53,10.00
2015,05,15,03,54,10.00
2015,05,15,03,55,10.00
2015,05,15,03,56,10.00
2015,05,15,03,57,10.00
2015,05,15,03,58,10.00
2015,05,15,03,59,10.00
2015,05,15,04,00,9.90
2015,05,15,04,01,9.90
2015,05,15,04,02,9.90
2015,05,15,04,03,9.90
2015,05,15,04,04,9.90
2015,05,15,04,05,9.90
2015,05,15,04,06,9.90
2015,05,15,04,07,9.90
2015,05,15,04,08,9.90
2015,05,15,04,09,9.90
2015,05,15,04,10,9.90
2015,05,15,04,11,9.90
2015,05,15,04,12,9.90
2015,05,15,04,13,10.00
2015,05,15,04,14,10.00
2015,05,15,04,15,10.00
2015,05,15,04,16,10.00
2015,05,15,04,17,10.00
2015,05,15,04,18,10.00
2015,05,15,04,19,10.00
2015,05,15,04,20,10.00
2015,05,15,04,21,10.00
2015,05,15,04,22,10.00
2015,05,15,04,23,10.00
2015,05,15,04,24,10.00
2015,05,15,04,25,10.00
2015,05,15,04,26,10.00
2015,05,15,04,27,10.00
2015,05,15,04,28,10.00
2015,05,15,04,29,10.00
2015,05,15,04,30,10.00
2015,05,15,04,31,10.00
2015,05,15,04,32,9.90
2015,05,15,04,33,9.90
2015,05,15,04,34,9.90
2015,05,15,04,35,9.90
2015,05,15,04,36,9.90
2015,05,15,04,37,9.90
2015,05,15,04,38,9.90
2015,05,15,04,39,9.90
2015,05,15,04,40,9.90
2015,05,15,04,41,9.90
2015,05,15,04,42,9.90
2015,05,15,04,43,9.90
2015,05,15,04,44,9.80
2015,05,15,04,45,9.80
2015,05,15,04,46,9.80
2015,05,15,04,47,9.80
2015,05,15,04,48,9.80
2015,05,15,04,49,9.80
2015,05,15,04,50,9.80
2015,05,15,04,51,9.70
2015,05,15,04,52,9.70
2015,05,15,04,53,9.70
2015,05,15,04,54,9.70
2015,05,15,04,55,9.70
2015,05,15,04,56,9.70
2015,05,15,04,57,9.70
2015,05,15,04,58,9.70
2015,05,15,04,59,9.70
2015,05,15,05,00,9.70
2015,05,15,05,01,9.70
2015,05,15,05,02,9.70
2015,05,15,05,03,9.70
2015,05,15,05,04,9.70
2015,05,15,05,05,9.70
2015,05,15,05,06,9.70
2015,05,15,05,07,9.70
2015,05,15,05,08,9.70
2015,05,15,05,09,9.70
2015,05,15,05,10,9.70
2015,05,15,05,11,9.70
2015,05,15,05,12,9.60
2015,05,15,05,13,9.60
2015,05,15,05,14,9.60
2015,05,15,05,15,9.60
2015,05,15,05,16,9.60
2015,05,15,05,17,9.60
2015,05,15,05,18,9.60
2015,05,15,05,19,9.60
2015,05,15,05,20,9.60
2015,05,15,05,21,9.60
2015,05,15,05,22,9.60
2015,05,15,05,23,9.60
2015,05,15,05,24,9.60
2015,05,15,05,25,9.60
2015,05,15,05,26,9.60
2015,05,15,05,27,9.60
2015,05,15,05,28,9.50
2015,05,15,05,29,9.50
2015,05,15,05,30,9.50
2015,05,15,05,31,9.50
2015,05,15,05,32,9.50
2015,05,15,05,33,9.50
2015,05,15,05,34,9.50
2015,05,15,05,35,9.60
2015,05,15,05,36,9.60
2015,05,15,05,37,9.60
2015,05,15,05,38,9.60
2015,05,15,05,39,9.60
2015,05,15,05,40,9.60
2015,05,15,05,41,9.60
2015,05,15,05,42,9.70
2015,05,15,05,43,9.70
2015,05,15,05,44,9.70
2015,05,15,05,45,9.70
2015,05,15,05,46,9.70
2015,05,15,05,47,9.80
2015,05,15,05,48,9.80
2015,05,15,05,49,9.80
2015,05,15,05,50,9.80
2015,05,15,05,51,9.80
2015,05,15,05,52,9.80
2015,05,15,05,53,9.80
2015,05,15,05,54,9.80
2015,05,15,05,55,9.80
2015,05,15,05,56,9.80
2015,05,15,05,57,9.80
2015,05,15,05,58,9.80
2015,05,15,05,59,9.80
2015,05,15,06,00,9.80
2015,05,15,06,01,9.80
2015,05,15,06,02,9.80
2015,05,15,06,03,9.80
2015,05,15,06,04,9.80
2015,05,15,06,05,9.90
2015,05,15,06,06,9.90
2015,05,15,06,07,9.90
2015,05,15,06,08,9.90
2015,05,15,06,09,9.90
2015,05,15,06,10,9.90
2015,05,15,06,11,9.90
2015,05,15,06,12,9.90
2015,05,15,06,13,9.90
2015,05,15,06,14,9.90
2015,05,15,06,15,10.00
2015,05,15,06,16,10.00
2015,05,15,06,17,10.00
2015,05,15,06,18,10.00
2015,05,15,06,19,10.00
2015,05,15,06,20,10.00
2015,05,15,06,21,10.00
2015,05,15,06,22,10.10
2015,05,15,06,23,10.10
2015,05,15,06,24,10.10
2015,05,15,06,25,10.10
2015,05,15,06,26,10.10
2015,05,15,06,27,10.10
2015,05,15,06,28,10.10
2015,05,15,06,29,10.10
2015,05,15,06,30,10.10
2015,05,15,06,31,10.10
2015,05,15,06,32,10.20
2015,05,15,06,33,10.20
2015,05,15,06,34,10.20
2015,05,15,06,35,10.20
2015,05,15,06,36,10.20
2015,05,15,06,37,10.20
2015,05,15,06,38,10.20
2015,05,15,06,39,10.20
2015,05,15,06,40,10.20
2015,05,15,06,41,10.20
2015,05,15,06,42,10.20
2015,05,15,06,43,10.20
2015,05,15,06,44,10.20
2015,05,15,06,45,10.20
2015,05,15,06,46,10.30
2015,05,15,06,47,10.30
2015,05,15,06,48,10.30
2015,05,15,06,49,10.30
2015,05,15,06,50,10.30
2015,05,15,06,51,10.30
2015,05,15,06,52,10.30
2015,05,15,06,53,10.30
2015,05,15,06,54,10.30
2015,05,15,06,55,10.30
2015,05,15,06,56,10.40
2015,05,15,06,57,10.40
2015,05,15,06,58,10.40
2015,05,15,06,59,10.40
2015,05,15,07,00,10.50
2015,05,15,07,01,10.50
2015,05,15,07,02,10.60
2015,05,15,07,03,10.60
2015,05,15,07,04,10.70
2015,05,15,07,05,10.80
2015,05,15,07,06,10.80
2015,05,15,07,07,11.00
2015,05,15,07,08,11.00
2015,05,15,07,09,11.10
2015,05,15,07,10,11.20
2015,05,15,07,11,11.30
2015,05,15,07,12,11.30
2015,05,15,07,13,11.40
2015,05,15,07,14,11.40
2015,05,15,07,15,11.50
2015,05,15,07,16,11.60
2015,05,15,07,17,11.60
2015,05,15,07,18,11.60
2015,05,15,07,19,11.70
2015,05,15,07,20,11.70
2015,05,15,07,21,11.80
2015,05,15,07,22,11.80
2015,05,15,07,23,11.80
2015,05,15,07,24,11.90
2015,05,15,07,25,11.90
2015,05,15,07,26,11.90
2015,05,15,07,27,11.90
2015,05,15,07,28,12.00
2015,05,15,07,29,12.00
2015,05,15,07,30,12.00
2015,05,15,07,31,12.00
2015,05,15,07,32,12.00
2015,05,15,07,33,12.00
2015,05,15,07,34,12.00
2015,05,15,07,35,12.10
2015,05,15,07,36,12.10
2015,05,15,07,37,12.10
2015,05,15,07,38,12.10
2015,05,15,07,39,12.20
2015,05,15,07,40,12.20
2015,05,15,07,41,12.30
2015,05,15,07,42,12.40
2015,05,15,07,43,12.40
2015,05,15,07,44,12.50
2015,05,15,07,45,12.60
2015,05,15,07,46,12.60
2015,05,15,07,47,12.70
2015,05,15,07,48,12.70
2015,05,15,07,49,12.80
2015,05,15,07,50,12.80
2015,05,15,07,51,12.90
2015,05,15,07,52,12.90
2015,05,15,07,53,12.90
2015,05,15,07,54,12.90
2015,05,15,07,55,12.90
2015,05,15,07,56,13.00
2015,05,15,07,57,13.00
2015,05,15,07,58,13.10
2015,05,15,07,59,13.10
2015,05,15,08,00,13.10
2015,05,15,08,01,13.20
2015,05,15,08,02,13.20
2015,05,15,08,03,13.20
2015,05,15,08,04,13.30
2015,05,15,08,05,13.40
2015,05,15,08,06,13.50
2015,05,15,08,07,13.50
2015,05,15,08,08,13.60
2015,05,15,08,09,13.60
2015,05,15,08,10,13.60
2015,05,15,08,11,13.60
2015,05,15,08,12,13.60
2015,05,15,08,13,13.60
2015,05,15,08,14,13.60
2015,05,15,08,15,13.80
2015,05,15,08,16,13.80
2015,05,15,08,17,13.90
2015,05,15,08,18,14.00
2015,05,15,08,19,14.10
2015,05,15,08,20,14.20
2015,05,15,08,21,14.30
2015,05,15,08,22,14.40
2015,05,15,08,23,14.40
2015,05,15,08,24,14.60
2015,05,15,08,25,14.60
2015,05,15,08,26,14.80
2015,05,15,08,27,14.90
2015,05,15,08,28,14.90
2015,05,15,08,29,15.00
2015,05,15,08,30,15.00
2015,05,15,08,31,15.10
2015,05,15,08,32,15.20
2015,05,15,08,33,15.30
2015,05,15,08,34,15.40
2015,05,15,08,35,15.40
2015,05,15,08,36,15.30
2015,05,15,08,37,15.30
2015,05,15,08,38,15.20
2015,05,15,08,39,15.30
2015,05,15,08,40,15.40
2015,05,15,08,41,15.40
2015,05,15,08,42,15.40
2015,05,15,08,43,15.40
2015,05,15,08,44,15.40
2015,05,15,08,45,15.30
2015,05,15,08,46,15.40
2015,05,15,08,47,15.50
2015,05,15,08,48,15.50
2015,05,15,08,49,15.60
2015,05,15,08,50,15.70
2015,05,15,08,51,15.70
2015,05,15,08,52,15.80
2015,05,15,08,53,15.90
2015,05,15,08,54,15.90
2015,05,15,08,55,15.90
2015,05,15,08,56,15.90
2015,05,15,08,57,16.00
2015,05,15,08,58,16.10
2015,05,15,08,59,16.20
2015,05,15,09,00,16.20
2015,05,15,09,01,16.20
2015,05,15,09,02,16.30
2015,05,15,09,03,16.30
2015,05,15,09,04,16.40
2015,05,15,09,05,16.50
2015,05,15,09,06,16.60
2015,05,15,09,07,16.60
2015,05,15,09,08,16.60
2015,05,15,09,09,16.70
2015,05,15,09,10,16.70
2015,05,15,09,11,16.60
2015,05,15,09,12,16.60
2015,05,15,09,13,16.60
2015,05,15,09,14,16.70
2015,05,15,09,15,16.80
2015,05,15,09,16,17.00
2015,05,15,09,17,17.10
2015,05,15,09,18,17.20
2015,05,15,09,19,17.30
2015,05,15,09,20,17.30
2015,05,15,09,21,17.30
2015,05,15,09,22,17.30
2015,05,15,09,23,17.30
2015,05,15,09,24,17.30
2015,05,15,09,25,17.20
2015,05,15,09,26,17.20
2015,05,15,09,27,17.20
2015,05,15,09,28,17.40
2015,05,15,09,29,17.60
2015,05,15,09,30,17.80
2015,05,15,09,31,18.00
2015,05,15,09,32,18.10
2015,05,15,09,33,18.30
2015,05,15,09,34,18.30
2015,05,15,09,35,18.40
2015,05,15,09,36,18.40
2015,05,15,09,37,18.30
2015,05,15,09,38,18.30
2015,05,15,09,39,18.20
2015,05,15,09,40,18.10
2015,05,15,09,41,18.10
2015,05,15,09,42,18.00
2015,05,15,09,43,17.90
2015,05,15,09,44,17.80
2015,05,15,09,45,17.80
2015,05,15,09,46,17.80
2015,05,15,09,47,17.80
2015,05,15,09,48,17.80
2015,05,15,09,49,17.70
2015,05,15,09,50,17.70
2015,05,15,09,51,17.70
2015,05,15,09,52,17.60
2015,05,15,09,53,17.50
2015,05,15,09,54,17.50
2015,05,15,09,55,17.40
2015,05,15,09,56,17.40
2015,05,15,09,57,17.40
2015,05,15,09,58,17.30
2015,05,15,09,59,17.20
2015,05,15,10,00,17.10
2015,05,15,10,01,16.90
2015,05,15,10,02,16.70
2015,05,15,10,03,16.50
2015,05,15,10,04,16.40
2015,05,15,10,05,16.30
2015,05,15,10,06,16.20
2015,05,15,10,07,16.10
2015,05,15,10,08,16.00
2015,05,15,10,09,15.90
2015,05,15,10,10,15.90
2015,05,15,10,11,16.00
2015,05,15,10,12,16.00
2015,05,15,10,13,16.00
2015,05,15,10,14,16.00
2015,05,15,10,15,16.10
2015,05,15,10,16,16.20
2015,05,15,10,17,16.30
2015,05,15,10,18,16.30
2015,05,15,10,19,16.30
2015,05,15,10,20,16.30
2015,05,15,10,21,16.30
2015,05,15,10,22,16.40
2015,05,15,10,23,16.40
2015,05,15,10,24,16.40
2015,05,15,10,25,16.40
2015,05,15,10,26,16.40
2015,05,15,10,27,16.50
2015,05,15,10,28,16.50
2015,05,15,10,29,16.50
2015,05,15,10,30,16.40
2015,05,15,10,31,16.20
2015,05,15,10,32,16.20
2015,05,15,10,33,16.10
2015,05,15,10,34,16.10
2015,05,15,10,35,16.10
2015,05,15,10,36,16.10
2015,05,15,10,37,16.00
2015,05,15,10,38,16.00
2015,05,15,10,39,15.90
2015,05,15,10,40,15.90
2015,05,15,10,41,15.90
2015,05,15,10,42,15.90
2015,05,15,10,43,15.90
2015,05,15,10,44,15.80
2015,05,15,10,45,15.70
2015,05,15,10,46,15.70
2015,05,15,10,47,15.70
2015,05,15,10,48,15.70
2015,05,15,10,49,15.60
2015,05,15,10,50,15.60
2015,05,15,10,51,15.60
2015,05,15,10,52,15.60
2015,05,15,10,53,15.50
2015,05,15,10,54,15.50
2015,05,15,10,55,15.50
2015,05,15,10,56,15.50
2015,05,15,10,57,15.50
2015,05,15,10,58,15.40
2015,05,15,10,59,15.40
2015,05,15,11,00,15.50
2015,05,15,11,01,15.60
2015,05,15,11,02,15.60
2015,05,15,11,03,15.70
2015,05,15,11,04,15.70
2015,05,15,11,05,15.60
2015,05,15,11,06,15.60
2015,05,15,11,07,15.60
2015,05,15,11,08,15.60
2015,05,15,11,09,15.70
2015,05,15,11,10,15.70
2015,05,15,11,11,15.70
2015,05,15,11,12,15.70
2015,05,15,11,13,15.70
2015,05,15,11,14,15.70
2015,05,15,11,15,15.70
2015,05,15,11,16,15.70
2015,05,15,11,17,15.70
2015,05,15,11,18,15.70
2015,05,15,11,19,15.70
2015,05,15,11,20,15.70
2015,05,15,11,21,15.70
2015,05,15,11,22,15.80
2015,05,15,11,23,15.90
2015,05,15,11,24,16.10
2015,05,15,11,25,16.30
2015,05,15,11,26,16.50
2015,05,15,11,27,16.60
2015,05,15,11,28,16.70
2015,05,15,11,29,16.90
2015,05,15,11,30,17.00
2015,05,15,11,31,17.10
2015,05,15,11,32,17.20
2015,05,15,11,33,17.20
2015,05,15,11,34,17.30
2015,05,15,11,35,17.30
2015,05,15,11,36,17.40
2015,05,15,11,37,17.60
2015,05,15,11,38,17.70
2015,05,15,11,39,17.80
2015,05,15,11,40,17.90
2015,05,15,11,41,18.00
2015,05,15,11,42,18.00
2015,05,15,11,43,18.10
2015,05,15,11,44,18.10
2015,05,15,11,45,18.10
2015,05,15,11,46,18.20
2015,05,15,11,47,18.30
2015,05,15,11,48,18.50
2015,05,15,11,49,18.60
2015,05,15,11,50,18.70
2015,05,15,11,51,18.80
2015,05,15,11,52,18.90
2015,05,15,11,53,18.90
2015,05,15,11,54,19.00
2015,05,15,11,55,18.90
2015,05,15,11,56,18.90
2015,05,15,11,57,18.90
2015,05,15,11,58,18.90
2015,05,15,11,59,18.80
2015,05,15,12,00,18.80
2015,05,15,12,01,18.80
2015,05,15,12,02,18.80
2015,05,15,12,03,18.90
2015,05,15,12,04,18.90
2015,05,15,12,05,18.90
2015,05,15,12,06,18.90
2015,05,15,12,07,18.80
2015,05,15,12,08,18.70
2015,05,15,12,09,18.60
2015,05,15,12,10,18.60
2015,05,15,12,11,18.60
2015,05,15,12,12,18.60
2015,05,15,12,13,18.70
2015,05,15,12,14,18.70
2015,05,15,12,15,18.70
2015,05,15,12,16,18.80
2015,05,15,12,17,18.70
2015,05,15,12,18,18.70
2015,05,15,12,19,18.70
2015,05,15,12,20,18.60
2015,05,15,12,21,18.50
2015,05,15,12,22,18.50
2015,05,15,12,23,18.50
2015,05,15,12,24,18.40
2015,05,15,12,25,18.40
2015,05,15,12,26,18.30
2015,05,15,12,27,18.20
2015,05,15,12,28,18.10
2015,05,15,12,29,18.00
2015,05,15,12,30,17.90
2015,05,15,12,31,17.90
2015,05,15,12,32,17.90
2015,05,15,12,33,17.90
2015,05,15,12,34,17.70
2015,05,15,12,35,17.60
2015,05,15,12,36,17.50
2015,05,15,12,37,17.40
2015,05,15,12,38,17.40
2015,05,15,12,39,17.40
2015,05,15,12,40,17.40
2015,05,15,12,41,17.40
2015,05,15,12,42,17.50
2015,05,15,12,43,17.50
2015,05,15,12,44,17.50
2015,05,15,12,45,17.60
2015,05,15,12,46,17.70
2015,05,15,12,47,17.70
2015,05,15,12,48,17.80
2015,05,15,12,49,17.90
2015,05,15,12,50,18.00
2015,05,15,12,51,18.00
2015,05,15,12,52,18.00
2015,05,15,12,53,18.10
2015,05,15,12,54,18.20
2015,05,15,12,55,18.20
2015,05,15,12,56,18.20
2015,05,15,12,57,18.10
2015,05,15,12,58,18.20
2015,05,15,12,59,18.30
2015,05,15,13,00,18.30
2015,05,15,13,01,18.40
2015,05,15,13,02,18.30
2015,05,15,13,03,18.30
2015,05,15,13,04,18.20
2015,05,15,13,05,18.30
2015,05,15,13,06,18.40
2015,05,15,13,07,18.50
2015,05,15,13,08,18.60
2015,05,15,13,09,18.70
2015,05,15,13,10,18.70
2015,05,15,13,11,18.80
2015,05,15,13,12,18.80
2015,05,15,13,13,18.80
2015,05,15,13,14,18.80
2015,05,15,13,15,18.80
2015,05,15,13,16,18.70
2015,05,15,13,17,18.60
2015,05,15,13,18,18.50
2015,05,15,13,19,18.40
2015,05,15,13,20,18.40
2015,05,15,13,21,18.40
2015,05,15,13,22,18.50
2015,05,15,13,23,18.60
2015,05,15,13,24,18.80
2015,05,15,13,25,18.80
2015,05,15,13,26,18.90
2015,05,15,13,27,19.00
2015,05,15,13,28,19.10
2015,05,15,13,29,19.20
2015,05,15,13,30,19.10
2015,05,15,13,31,19.00
2015,05,15,13,32,19.00
2015,05,15,13,33,19.10
2015,05,15,13,34,19.10
2015,05,15,13,35,19.20
2015,05,15,13,36,19.20
2015,05,15,13,37,19.20
2015,05,15,13,38,19.20
2015,05,15,13,39,19.30
2015,05,15,13,40,19.30
2015,05,15,13,41,19.30
2015,05,15,13,42,19.20
2015,05,15,13,43,19.20
2015,05,15,13,44,19.20
2015,05,15,13,45,19.20
2015,05,15,13,46,19.20
2015,05,15,13,47,19.30
2015,05,15,13,48,19.30
2015,05,15,13,49,19.20
2015,05,15,13,50,19.20
2015,05,15,13,51,19.30
2015,05,15,13,52,19.40
2015,05,15,13,53,19.40
2015,05,15,13,54,19.40
2015,05,15,13,55,19.50
2015,05,15,13,56,19.60
2015,05,15,13,57,19.60
2015,05,15,13,58,19.60
2015,05,15,13,59,19.60
2015,05,15,14,00,19.60
2015,05,15,14,01,19.60
2015,05,15,14,02,19.60
2015,05,15,14,03,19.60
2015,05,15,14,04,19.60
2015,05,15,14,05,19.60
2015,05,15,14,06,19.60
2015,05,15,14,07,19.50
2015,05,15,14,08,19.40
2015,05,15,14,09,19.30
2015,05,15,14,10,19.30
2015,05,15,14,11,19.30
2015,05,15,14,12,19.40
2015,05,15,14,13,19.30
2015,05,15,14,14,19.30
2015,05,15,14,15,19.40
2015,05,15,14,16,19.50
2015,05,15,14,17,19.60
2015,05,15,14,18,19.70
2015,05,15,14,19,19.70
2015,05,15,14,20,19.70
2015,05,15,14,21,19.80
2015,05,15,14,22,19.80
2015,05,15,14,23,19.90
2015,05,15,14,24,19.90
2015,05,15,14,25,19.80
2015,05,15,14,26,19.80
2015,05,15,14,27,19.80
2015,05,15,14,28,19.70
2015,05,15,14,29,19.60
2015,05,15,14,30,19.60
2015,05,15,14,31,19.70
2015,05,15,14,32,19.60
2015,05,15,14,33,19.50
2015,05,15,14,34,19.40
2015,05,15,14,35,19.40
2015,05,15,14,36,19.40
2015,05,15,14,37,19.50
2015,05,15,14,38,19.70
2015,05,15,14,39,19.80
2015,05,15,14,40,19.90
2015,05,15,14,41,19.90
2015,05,15,14,42,19.90
2015,05,15,14,43,19.90
2015,05,15,14,44,19.90
2015,05,15,14,45,19.90
2015,05,15,14,46,20.00
2015,05,15,14,47,20.10
2015,05,15,14,48,20.30
2015,05,15,14,49,20.40
2015,05,15,14,50,20.50
2015,05,15,14,51,20.50
2015,05,15,14,52,20.40
2015,05,15,14,53,20.40
2015,05,15,14,54,20.30
2015,05,15,14,55,20.30
2015,05,15,14,56,20.20
2015,05,15,14,57,20.20
2015,05,15,14,58,20.20
2015,05,15,14,59,20.20
2015,05,15,15,00,20.20
2015,05,15,15,01,20.30
2015,05,15,15,02,20.30
2015,05,15,15,03,20.30
2015,05,15,15,04,20.20
2015,05,15,15,05,20.20
2015,05,15,15,06,20.30
2015,05,15,15,07,20.30
2015,05,15,15,08,20.30
2015,05,15,15,09,20.30
2015,05,15,15,10,20.30
2015,05,15,15,11,20.30
2015,05,15,15,12,20.30
2015,05,15,15,13,20.20
2015,05,15,15,14,20.20
2015,05,15,15,15,20.20
2015,05,15,15,16,20.20
2015,05,15,15,17,20.10
2015,05,15,15,18,20.00
2015,05,15,15,19,19.90
2015,05,15,15,20,19.80
2015,05,15,15,21,19.70
2015,05,15,15,22,19.60
2015,05,15,15,23,19.50
2015,05,15,15,24,19.40
2015,05,15,15,25,19.30
2015,05,15,15,26,19.30
2015,05,15,15,27,19.30
2015,05,15,15,28,19.30
2015,05,15,15,29,19.30
2015,05,15,15,30,19.30
2015,05,15,15,31,19.20
2015,05,15,15,32,19.20
2015,05,15,15,33,19.20
2015,05,15,15,34,19.30
2015,05,15,15,35,19.40
2015,05,15,15,36,19.50
2015,05,15,15,37,19.70
2015,05,15,15,38,19.70
2015,05,15,15,39,19.60
2015,05,15,15,40,19.50
2015,05,15,15,41,19.30
2015,05,15,15,42,19.20
2015,05,15,15,43,19.10
2015,05,15,15,44,19.10
2015,05,15,15,45,19.10
2015,05,15,15,46,19.20
2015,05,15,15,47,19.30
2015,05,15,15,48,19.30
2015,05,15,15,49,19.40
2015,05,15,15,50,19.40
2015,05,15,15,51,19.40
2015,05,15,15,52,19.40
2015,05,15,15,53,19.30
2015,05,15,15,54,19.30
2015,05,15,15,55,19.40
2015,05,15,15,56,19.50
2015,05,15,15,57,19.50
2015,05,15,15,58,19.60
2015,05,15,15,59,19.50
2015,05,15,16,00,19.40
2015,05,15,16,01,19.30
2015,05,15,16,02,19.20
2015,05,15,16,03,19.20
2015,05,15,16,04,19.10
2015,05,15,16,05,19.00
2015,05,15,16,06,18.90
2015,05,15,16,07,18.90
2015,05,15,16,08,18.90
2015,05,15,16,09,18.80
2015,05,15,16,10,18.80
2015,05,15,16,11,18.80
2015,05,15,16,12,18.90
2015,05,15,16,13,18.90
2015,05,15,16,14,18.90
2015,05,15,16,15,18.90
2015,05,15,16,16,19.00
2015,05,15,16,17,19.00
2015,05,15,16,18,19.10
2015,05,15,16,19,19.00
2015,05,15,16,20,18.90
2015,05,15,16,21,18.90
2015,05,15,16,22,18.80
2015,05,15,16,23,18.70
2015,05,15,16,24,18.70
2015,05,15,16,25,18.60
2015,05,15,16,26,18.60
2015,05,15,16,27,18.70
2015,05,15,16,28,18.70
2015,05,15,16,29,18.70
2015,05,15,16,30,18.80
2015,05,15,16,31,18.70
2015,05,15,16,32,18.70
2015,05,15,16,33,18.70
2015,05,15,16,34,18.60
2015,05,15,16,35,18.50
2015,05,15,16,36,18.40
2015,05,15,16,37,18.40
2015,05,15,16,38,18.40
2015,05,15,16,39,18.30
2015,05,15,16,40,18.30
2015,05,15,16,41,18.20
2015,05,15,16,42,18.20
2015,05,15,16,43,18.20
2015,05,15,16,44,18.20
2015,05,15,16,45,18.30
2015,05,15,16,46,18.30
2015,05,15,16,47,18.30
2015,05,15,16,48,18.30
2015,05,15,16,49,18.20
2015,05,15,16,50,18.10
2015,05,15,16,51,18.10
2015,05,15,16,52,18.10
2015,05,15,16,53,18.10
2015,05,15,16,54,18.10
2015,05,15,16,55,18.10
2015,05,15,16,56,18.10
2015,05,15,16,57,18.10
2015,05,15,16,58,18.10
2015,05,15,16,59,18.10
2015,05,15,17,00,18.10
2015,05,15,17,01,18.10
2015,05,15,17,02,18.10
2015,05,15,17,03,18.10
2015,05,15,17,04,18.00
2015,05,15,17,05,17.90
2015,05,15,17,06,17.90
2015,05,15,17,07,17.90
2015,05,15,17,08,17.80
2015,05,15,17,09,17.80
2015,05,15,17,10,17.70
2015,05,15,17,11,17.60
2015,05,15,17,12,17.60
2015,05,15,17,13,17.60
2015,05,15,17,14,17.60
2015,05,15,17,15,17.60
2015,05,15,17,16,17.70
2015,05,15,17,17,17.70
2015,05,15,17,18,17.60
2015,05,15,17,19,17.60
2015,05,15,17,20,17.60
2015,05,15,17,21,17.60
2015,05,15,17,22,17.60
2015,05,15,17,23,17.50
2015,05,15,17,24,17.50
2015,05,15,17,25,17.50
2015,05,15,17,26,17.40